User: anonymous   Login
Location: Nairn
(57.5833°N, 3.8667°W)
Time: 10:51:12
(UTC+00:00)
Language:

NPP - Orbit

View from above orbital plane
View from above orbital plane
View from above satellite
View from above satellite

Ground track
Ground track

The orbit data is extracted from the following two-line orbital elements,

1 37849U 11061A   20305.16594584  .00000022  00000-0  31034-4 0  9991
2 37849  98.7120 241.1781 0000770 106.0462   6.8039 14.19558562466870
Epoch (UTC): 31 October 2020 03:58:57
Eccentricity: 0.0000770
inclination: 98.7120°
perigee height: 826 km
apogee height: 827 km
right ascension of ascending node: 241.1781°
argument of perigee: 106.0462°
revolutions per day: 14.19558562
mean anomaly at epoch: 6.8039°
orbit number at epoch: 46687

The dashed part of the orbit path shows where the satellite is in the earth's shadow,  

DLR